Location: Newark
(22.2167°N, 96.1167°E)
Time: 21:46:30
(UTC+00:00)

Hubble Space Telescope - Visible Passes

Search period start: 15 December 2019 00:00
Search period end: 25 December 2019 00:00
Orbit: 536 x 540 km, 28.5° (Epoch: 14 December)

Date Brightness Start Highest point End Pass type
(mag) Time Alt. Az. Time Alt. Az. Time Alt. Az.
15 Dec 0.8 22:33:04 59° NNW 22:33:06 59° NNW 22:37:11 10° ENE visible
16 Dec 1.5 22:23:22 42° NNE 22:23:22 42° NNE 22:26:35 10° ENE visible
17 Dec 2.2 22:13:34 29° NE 22:13:34 29° NE 22:15:59 10° ENE visible
18 Dec 2.8 22:03:42 21° NE 22:03:42 21° NE 22:05:23 10° ENE visible
18 Dec 1.7 23:39:18 10° WNW 23:43:06 35° N 23:46:55 10° ENE visible
19 Dec 3.3 21:53:48 16° NE 21:53:48 16° NE 21:54:49 10° ENE visible
19 Dec 1.6 23:29:08 12° WNW 23:32:36 37° N 23:36:28 10° ENE visible
20 Dec 3.7 21:43:51 12° ENE 21:43:51 12° ENE 21:44:16 10° ENE visible
20 Dec 1.5 23:19:11 16° NW 23:22:05 41° N 23:26:00 10° E visible
21 Dec 1.3 23:09:13 22° NW 23:11:33 46° NNE 23:15:32 10° E visible
22 Dec 1.1 22:59:15 30° NW 23:01:00 54° NNE 23:05:03 10° E visible
23 Dec 0.9 22:49:17 43° NW 22:50:27 65° NNE 22:54:33 10° E visible
24 Dec 0.6 22:39:20 65° NW 22:39:53 80° NNE 22:44:01 10° ESE visible
